Temperature
18 18 18 18 18 18 18 18 18 18 18 18 18 18 18 18 17 17 17 17 17 17 17 17 17 17 17 17 17 17 17 17 17 16 16 16 16 16 16 16 16 16 16
18 18 18 18 18 18 18 18 18 18 18 17 17 17 17 17 17 17 17 17 17 17 17 17 17 17 17 17 17 17 17 17 16 16 16 16 16 16 16 16 16 16 16
18 18 18 18 18 18 18 18 18 18 17 17 17 17 17 17 17 17 17 17 17 17 17 17 17 17 17 17 17 17 17 17 16 16 16 16 16 16 16 16 16 16 16
18 18 18 18 18 18 18 18 18 17 17 17 17 17 17 17 17 17 17 17 17 17 17 17 17 17 17 17 17 17 17 16 16 16 16 16 16 16 16 16 16 15 15
18 18 18 18 18 18 18 18 18 18 17 17 17 17 17 17 17 17 17 17 17 17 17 17 17 17 17 17 17 17 17 17 16 16 16 16 16 16 15 15 15 15 15
18 18 18 18 18 18 18 18 18 17 17 17 17 17 17 17 17 17 17 17 17 17 17 17 17 17 17 17 17 17 17 16 16 16 16 16 16 15 15 15 15 15 15
18 18 18 18 18 18 18 18 18 17 17 17 17 17 17 17 17 17 17 17 17 17 17 17 17 17 17 17 17 17 17 16 16 16 16 16 16 16 15 15 15 15 15
18 18 18 18 18 18 18 18 18 18 17 17 17 17 17 17 17 17 17 17 17 17 17 17 17 17 17 17 17 17 17 16 16 16 16 16 16 16 15 15 15 15 15
18 18 18 18 18 18 18 18 18 18 18 17 17 17 17 17 17 17 17 17 17 17 17 17 17 17 17 17 17 17 17 16 16 16 16 16 16 15 15 15 15 15 15
18 18 18 18 18 18 18 18 18 18 18 18 17 18 17 17 17 17 17 17 17 17 17 17 17 17 17 17 17 17 16 16 16 16 16 16 16 15 15 15 15 15 15
18 18 18 18 18 18 18 18 18 18 18 18 18 18 18 18 17 17 17 17 17 17 17 17 17 17 17 17 17 17 16 16 16 16 16 16 16 15 15 15 15 15 14
18 18 18 18 18 18 18 18 18 18 18 18 18 18 18 18 18 17 17 17 17 17 17 17 17 17 17 17 17 17 16 16 16 16 16 16 16 15 15 15 15 14 14
18 18 18 18 18 18 18 18 18 18 18 18 18 18 18 18 18 18 17 17 17 17 17 17 17 17 17 17 16 16 16 16 16 16 16 16 15 15 15 15 14 14 14
18 18 18 18 18 18 18 18 18 18 18 18 18 18 18 18 17 17 17 17 17 17 17 17 17 17 17 17 16 16 16 16 16 16 16 16 16 15 15 15 14 14 14
18 18 18 18 18 18 18 18 18 18 18 18 18 18 18 18 17 17 17 17 17 16 16 17 17 17 17 17 16 16 16 16 16 16 16 16 15 15 15 15 15 14 14
18 18 18 18 18 18 18 18 17 17 17 17 17 17 17 17 17 17 17 17 17 17 16 17 17 17 17 16 16 16 16 16 16 16 15 15 15 15 15 15 15 14 14
18 18 18 18 18 18 18 17 17 17 17 17 17 17 17 17 17 17 17 17 17 16 16 17 17 17 16 16 16 16 16 16 15 15 15 15 15 15 15 14 14 14 14
18 18 18 18 18 18 18 18 18 17 17 17 17 17 17 17 17 17 17 17 17 16 16 16 16 16 16 16 16 16 16 15 15 15 15 15 15 15 14 14 14 14 14
18 18 18 18 18 18 18 18 18 17 17 17 17 17 17 17 17 17 16 16 16 16 16 16 16 16 16 16 15 15 15 15 15 15 15 15 14 14 14 14 14 13 13
18 18 18 18 18 18 18 18 17 17 17 17 17 17 17 17 17 16 16 16 16 16 16 16 16 16 16 15 15 15 15 15 15 15 14 14 14 14 14 14 13 13 13
18 18 18 18 18 18 18 17 17 17 17 17 17 17 17 16 16 16 16 16 16 16 15 15 15 15 15 15 15 15 15 15 14 14 14 14 14 14 14 13 13 13 13
18 18 18 18 18 17 17 17 17 17 17 17 17 17 16 16 16 16 16 16 16 15 15 15 15 15 15 15 15 14 14 14 14 14 14 14 14 14 13 13 13 13 12
18 18 18 18 18 17 17 17 17 17 17 17 17 17 16 16 16 16 16 16 16 15 15 15 15 15 15 15 15 14 14 14 14 14 14 14 14 14 13 13 13 13 12
18 18 18 18 18 18 17 17 17 17 16 16 16 16 16 16 16 16 16 16 16 16 15 15 15 15 15 15 14 14 14 14 14 14 13 13 14 14 13 13 13 12 12
18 18 18 18 17 17 17 17 17 16 16 16 16 16 16 16 16 15 15 15 15 15 15 15 15 15 15 14 14 14 14 13 13 14 13 13 13 13 13 13 13 12 12
18 18 18 18 17 17 17 17 17 16 16 16 16 16 16 16 16 15 15 15 15 15 15 15 15 15 14 14 14 14 14 13 13 13 13 13 13 13 12 13 12 12 12
Wind_Speed
3 3 3 3 3 3 4 4 4 4 4 4 5 6 6 7 7 6 7 11 12 11 10 9 9 8 8 9 9 9 9 10 10 9 9 8 8 8 9 9 9 9 10
4 3 3 3 3 4 5 5 4 4 3 3 3 4 5 6 6 7 7 9 11 11 11 10 9 9 9 9 9 9 10 10 9 9 9 8 8 9 10 10 10 10 10
5 4 3 3 3 5 6 5 4 3 3 3 3 3 3 4 6 6 7 7 8 10 11 10 10 9 9 9 9 10 10 9 9 9 9 9 9 9 8 8 9 9 9
6 5 4 3 3 5 4 4 3 3 2 2 2 2 2 2 4 5 7 7 7 7 9 10 10 10 9 9 9 9 9 8 8 8 8 8 8 8 7 7 7 7 8
6 5 4 3 4 4 3 4 3 3 3 2 2 2 2 2 2 4 5 6 7 7 7 9 10 10 10 10 10 9 9 8 8 8 8 7 7 8 8 8 8 8 8
5 6 4 4 4 4 3 3 3 2 3 3 2 1 1 2 2 3 4 5 6 8 8 7 8 8 11 11 11 10 10 9 9 9 9 8 8 8 8 8 8 8 8
5 5 4 3 3 3 3 4 3 3 2 2 2 1 2 1 3 3 3 4 5 6 7 7 7 7 7 11 11 11 11 10 10 9 9 9 9 8 8 8 8 8 8
5 5 4 3 3 3 3 3 3 2 2 2 3 2 1 3 2 2 2 4 4 4 5 7 7 7 7 7 9 12 12 11 11 10 10 10 10 10 9 9 9 9 9
4 5 5 4 4 4 4 4 4 4 3 2 2 3 2 2 1 2 2 2 3 3 4 5 6 8 8 7 7 9 11 12 12 11 11 10 10 10 10 9 9 9 9
3 4 4 4 4 4 4 4 4 3 4 3 2 2 3 4 3 1 2 2 2 4 4 4 5 6 7 7 8 9 11 11 12 11 10 10 10 9 9 9 9 9 8
2 3 4 3 3 3 3 3 3 4 4 4 3 1 1 1 2 3 2 2 1 2 4 4 4 5 7 7 7 9 10 11 11 11 10 9 9 9 9 8 8 8 8
1 1 2 2 2 3 3 3 3 3 3 4 3 2 2 2 2 3 3 2 2 2 2 3 4 5 6 7 8 9 10 10 10 10 10 10 10 9 9 9 8 8 7
1 2 2 2 2 3 3 3 3 3 3 3 3 3 3 3 3 3 3 2 2 2 1 2 3 5 6 7 7 9 10 11 11 11 11 10 9 9 9 9 8 7 7
2 2 2 2 2 3 3 3 2 3 2 3 3 3 3 3 3 3 3 3 1 1 2 3 2 4 5 7 8 8 8 10 11 11 11 10 10 9 9 8 8 7 7
2 2 2 2 1 2 2 2 2 2 2 2 3 2 2 2 2 3 3 4 4 3 4 3 3 3 5 6 8 8 8 10 11 11 12 12 11 11 10 9 9 8 7
2 2 1 1 1 1 2 2 2 2 2 2 2 1 2 2 2 2 3 3 3 4 4 4 4 3 4 5 7 8 9 10 12 13 13 13 13 12 12 11 11 10 9
2 2 2 2 2 2 1 1 2 2 2 2 2 2 3 2 2 2 2 3 3 3 4 4 2 2 3 3 4 6 8 8 9 12 13 13 13 13 12 12 11 11 10
3 3 2 2 2 2 2 2 3 2 2 3 3 2 3 3 3 2 2 3 3 4 4 4 3 2 3 4 4 4 5 6 7 10 12 13 13 13 12 12 12 11 10
3 3 2 3 3 3 3 3 3 3 3 4 4 4 4 3 3 3 3 3 3 3 3 3 3 2 2 2 2 2 3 3 6 8 10 12 13 13 13 13 12 12 12
4 4 3 4 3 3 3 3 3 3 4 4 4 4 4 4 5 5 4 4 3 3 2 2 2 2 2 2 2 2 2 3 4 5 7 9 11 12 13 13 13 12 12
4 4 3 3 3 3 3 3 3 4 4 4 4 4 4 5 5 4 3 4 4 3 3 3 3 2 2 2 3 3 4 3 3 4 3 4 6 6 9 11 12 13 13
4 3 4 4 4 4 4 5 4 4 4 4 4 4 4 4 5 6 6 6 6 5 5 4 4 4 5 5 4 4 4 2 3 3 4 4 4 5 7 9 12 13 13
4 4 4 4 4 4 5 5 5 4 4 4 4 4 4 3 3 4 5 6 7 7 7 6 6 7 6 6 5 5 5 5 5 4 4 4 4 5 6 10 13 14 15
4 4 4 4 4 5 5 5 5 4 4 4 5 5 5 4 4 4 4 4 5 6 8 6 7 7 7 6 7 7 7 5 4 3 4 4 3 4 5 8 13 16 16
4 4 4 5 5 5 6 6 5 3 4 5 5 5 5 5 5 5 4 5 5 6 6 8 8 7 8 8 6 4 4 4 4 3 4 3 3 2 3 5 9 13 15
4 4 4 4 5 6 6 6 5 3 4 5 5 5 6 6 7 6 5 5 6 6 5 4 4 6 6 6 7 7 6 5 4 3 4 4 3 2 2 2 4 6 9
Wind_Direction
128 131 129 135 136 143 137 128 130 137 141 143 149 151 154 159 163 170 179 182 182 184 187 188 188 191 195 200 203 205 206 207 205 205 208 210 211 211 213 217 218 216 212
130 128 126 130 133 138 141 134 134 131 131 132 138 146 158 164 165 170 177 184 188 192 196 197 197 199 202 208 210 209 209 208 209 209 209 210 217 221 220 219 220 217 217
139 135 129 128 134 138 132 126 119 118 124 130 141 148 152 166 170 176 178 183 192 198 201 202 203 207 210 210 215 216 211 210 210 208 210 213 220 221 222 217 216 215 214
149 143 138 141 138 131 129 127 127 127 130 139 159 179 160 161 174 181 181 184 191 200 205 206 208 211 214 214 217 213 210 208 210 209 210 213 214 212 211 211 208 208 211
147 142 144 149 136 128 130 140 138 145 144 154 170 183 195 189 193 192 185 190 192 197 205 211 214 217 219 218 217 212 209 210 211 212 211 209 209 208 209 209 207 210 211
142 138 134 140 139 133 136 139 145 149 158 168 164 165 214 219 206 204 205 197 195 202 208 213 218 226 225 222 219 216 216 213 212 213 211 211 213 212 210 209 209 212 213
137 138 136 139 139 146 160 156 149 151 168 154 119 61 358 277 225 219 208 197 202 204 201 205 211 216 223 221 219 218 218 216 216 215 210 210 212 214 214 213 213 213 213
148 149 149 151 150 153 157 159 151 161 193 168 149 133 12 349 325 238 211 210 213 199 204 211 207 210 214 216 216 218 218 219 218 214 211 213 215 218 218 219 216 215 215
154 158 164 164 161 164 177 185 177 174 195 219 184 162 165 215 276 311 253 219 203 201 210 204 203 207 209 212 216 218 219 219 218 218 217 218 220 219 219 217 217 218 218
156 163 162 170 170 174 182 197 191 188 181 205 243 220 193 173 175 247 305 261 221 214 216 209 205 208 209 211 215 217 219 219 220 220 220 223 224 220 218 221 223 220 218
171 170 171 160 166 180 190 199 194 197 196 199 210 217 206 189 173 172 232 271 283 244 222 208 203 207 208 205 210 215 217 219 219 218 218 221 225 221 217 220 221 221 221
265 224 187 181 184 192 197 200 200 203 206 206 204 198 189 187 196 180 201 219 238 263 240 218 207 206 205 204 214 217 215 216 219 214 213 217 221 221 221 222 222 221 221
247 250 217 205 205 210 210 199 197 215 214 207 208 212 211 212 193 175 167 194 220 259 253 246 223 206 203 202 211 215 214 213 213 213 213 216 221 220 219 220 221 221 223
220 233 218 212 216 211 213 198 203 219 216 216 222 224 221 221 198 179 175 167 184 272 258 249 240 214 205 201 206 207 205 210 210 207 208 210 211 213 213 213 214 215 215
210 219 224 210 207 208 204 190 204 220 216 225 230 223 224 229 211 198 184 171 171 213 248 239 230 223 212 208 208 202 203 212 211 206 208 209 209 211 212 212 211 207 208
202 196 216 226 239 239 216 193 208 219 199 228 224 218 241 243 234 214 199 196 184 185 226 234 227 227 214 219 216 207 211 214 211 212 213 213 214 213 211 211 212 211 210
198 190 202 214 226 242 239 210 226 208 213 236 237 221 242 236 229 227 210 202 200 182 222 256 234 222 205 218 211 211 213 211 215 220 221 219 216 213 212 212 213 212 211
207 209 211 216 219 223 217 216 236 236 227 236 241 232 245 240 238 231 218 221 220 208 204 232 238 220 220 216 204 206 211 212 217 225 225 221 219 217 214 214 214 213 213
214 221 208 209 218 222 218 224 224 231 235 239 234 224 234 221 236 241 230 229 234 233 207 208 234 222 224 211 192 215 220 218 224 230 226 224 224 223 221 218 217 217 215
211 222 215 210 210 211 222 231 228 234 246 250 243 229 227 216 224 230 236 230 225 228 218 213 229 230 218 209 176 206 235 229 233 226 221 223 225 226 223 219 217 219 219
220 221 209 211 213 215 230 230 236 239 245 256 260 246 238 231 226 222 233 225 217 218 219 218 227 223 216 201 211 206 218 233 240 219 209 222 216 221 224 224 223 221 221
224 219 214 218 229 238 236 231 225 235 239 243 256 262 257 245 244 242 242 227 210 211 218 215 223 227 229 216 210 208 204 204 249 221 194 232 208 220 222 219 221 219 220
221 223 219 212 222 235 233 233 227 223 235 239 243 249 259 258 243 245 251 244 237 234 221 212 221 231 227 216 204 213 212 211 227 213 183 229 215 227 228 222 217 218 219
220 223 222 220 228 246 244 242 237 230 241 247 245 239 239 253 250 238 241 249 248 246 239 228 223 230 231 222 207 208 212 221 239 223 187 216 219 225 230 224 221 218 218
224 222 216 220 232 254 251 244 232 230 245 255 255 247 235 241 258 249 235 244 258 263 257 241 236 237 236 228 212 198 200 200 234 237 200 203 218 226 235 234 227 221 219
226 225 230 233 234 248 254 246 229 221 241 257 264 258 244 241 250 244 235 234 249 259 262 267 258 259 250 242 224 209 204 207 220 235 211 195 201 182 249 248 226 215 217
Height
1523 1523 1524 1525 1525 1526 1526 1527 1528 1530 1532 1534 1535 1536 1537 1539 1540 1541 1542 1543 1543 1544 1544 1545 1546 1546 1547 1547 1548 1548 1549 1549 1549 1550 1550 1551 1551 1552 1552 1552 1552 1553 1554
1524 1525 1525 1526 1527 1527 1528 1529 1530 1531 1532 1534 1535 1536 1538 1539 1540 1540 1541 1542 1543 1543 1544 1545 1545 1545 1546 1546 1546 1547 1547 1548 1548 1548 1549 1549 1550 1550 1550 1550 1550 1551 1551
1526 1526 1527 1527 1528 1529 1530 1530 1531 1532 1533 1534 1535 1536 1537 1538 1539 1540 1541 1542 1542 1543 1543 1544 1544 1545 1545 1545 1545 1545 1546 1546 1547 1547 1547 1548 1548 1548 1548 1548 1548 1549 1549
1527 1527 1528 1528 1529 1530 1531 1531 1532 1533 1534 1534 1535 1536 1537 1538 1539 1539 1540 1541 1542 1542 1543 1543 1544 1544 1544 1544 1544 1544 1544 1545 1545 1546 1546 1546 1546 1546 1546 1546 1546 1547 1547
1528 1528 1528 1529 1530 1531 1532 1532 1533 1534 1534 1535 1535 1536 1537 1537 1538 1539 1540 1540 1541 1542 1542 1542 1543 1543 1543 1543 1543 1543 1543 1544 1544 1544 1544 1544 1545 1545 1545 1545 1545 1545 1545
1529 1529 1529 1530 1531 1532 1532 1533 1533 1534 1535 1535 1536 1536 1537 1537 1538 1538 1539 1539 1540 1541 1541 1542 1542 1542 1542 1542 1542 1543 1542 1542 1542 1542 1543 1543 1543 1543 1543 1543 1543 1543 1543
1529 1530 1530 1531 1532 1532 1532 1533 1534 1534 1535 1536 1536 1536 1537 1537 1537 1537 1538 1538 1539 1540 1540 1540 1540 1540 1541 1541 1541 1541 1541 1541 1541 1541 1541 1541 1541 1541 1541 1541 1541 1541 1542
1530 1530 1531 1531 1532 1532 1532 1533 1534 1534 1534 1535 1535 1535 1536 1537 1537 1537 1537 1537 1538 1538 1538 1539 1539 1539 1539 1539 1539 1540 1540 1539 1539 1539 1539 1539 1539 1539 1539 1539 1539 1540 1540
1530 1531 1531 1531 1531 1532 1532 1533 1533 1534 1534 1534 1535 1535 1535 1535 1535 1536 1536 1537 1537 1537 1537 1537 1537 1537 1537 1537 1538 1538 1538 1538 1538 1538 1538 1538 1538 1537 1537 1537 1537 1537 1538
1530 1531 1531 1531 1530 1531 1532 1532 1533 1533 1533 1533 1534 1534 1534 1534 1534 1534 1535 1535 1535 1535 1535 1535 1536 1536 1535 1536 1536 1536 1536 1536 1536 1536 1536 1536 1536 1535 1535 1535 1535 1535 1535
1530 1530 1531 1531 1531 1531 1531 1532 1532 1532 1532 1532 1532 1532 1533 1533 1533 1533 1532 1533 1533 1534 1534 1534 1534 1534 1534 1534 1534 1533 1533 1534 1534 1534 1533 1533 1533 1533 1533 1533 1533 1532 1532
1530 1530 1530 1530 1530 1530 1530 1531 1531 1531 1531 1531 1531 1531 1531 1531 1531 1531 1531 1531 1531 1532 1532 1532 1532 1532 1532 1532 1532 1531 1531 1531 1531 1531 1531 1531 1531 1531 1531 1531 1530 1530 1530
1529 1529 1529 1529 1529 1529 1529 1530 1529 1529 1529 1529 1529 1529 1529 1529 1530 1530 1529 1529 1529 1530 1530 1530 1530 1530 1530 1530 1529 1529 1529 1529 1529 1528 1529 1529 1529 1529 1528 1528 1528 1528 1528
1529 1529 1529 1528 1528 1528 1528 1528 1527 1527 1527 1527 1527 1527 1527 1527 1527 1527 1527 1527 1527 1527 1527 1527 1527 1527 1527 1527 1527 1526 1526 1526 1526 1526 1526 1526 1526 1526 1526 1526 1525 1525 1525
1528 1528 1527 1527 1527 1526 1526 1526 1525 1525 1525 1525 1525 1525 1525 1524 1525 1525 1525 1526 1526 1525 1524 1524 1524 1524 1524 1524 1524 1524 1523 1523 1524 1524 1524 1524 1523 1523 1523 1523 1523 1522 1522
1526 1526 1526 1526 1525 1524 1524 1524 1523 1523 1523 1522 1523 1523 1522 1522 1522 1523 1523 1523 1523 1523 1522 1521 1521 1522 1522 1522 1521 1521 1521 1521 1521 1521 1521 1520 1520 1520 1520 1520 1520 1519 1519
1525 1524 1524 1524 1523 1523 1522 1522 1522 1521 1521 1521 1520 1520 1520 1520 1520 1520 1520 1520 1520 1520 1519 1518 1519 1519 1519 1518 1518 1518 1518 1518 1518 1518 1517 1517 1517 1517 1517 1516 1516 1516 1516
1523 1523 1522 1522 1522 1521 1521 1520 1520 1519 1519 1518 1518 1517 1517 1517 1517 1517 1517 1517 1517 1517 1516 1515 1515 1515 1515 1515 1515 1514 1515 1514 1514 1515 1514 1514 1513 1513 1513 1513 1513 1513 1513
1521 1521 1520 1520 1519 1519 1518 1518 1517 1517 1516 1516 1515 1515 1514 1514 1514 1514 1514 1514 1514 1513 1513 1512 1511 1512 1512 1512 1511 1511 1511 1510 1511 1511 1510 1510 1510 1509 1509 1509 1509 1509 1509
1519 1518 1518 1518 1517 1517 1516 1516 1515 1514 1514 1513 1512 1512 1511 1511 1511 1511 1510 1510 1510 1510 1509 1509 1508 1508 1508 1508 1507 1507 1506 1506 1506 1506 1506 1506 1506 1506 1505 1505 1506 1506 1506
1516 1516 1516 1515 1515 1514 1514 1513 1512 1512 1511 1510 1509 1509 1508 1508 1508 1507 1507 1506 1506 1505 1505 1504 1504 1504 1503 1503 1503 1503 1502 1502 1502 1502 1502 1502 1502 1502 1502 1502 1502 1502 1502
1514 1513 1513 1512 1512 1511 1511 1510 1510 1509 1508 1507 1506 1505 1505 1505 1504 1504 1503 1503 1502 1501 1501 1500 1499 1499 1498 1499 1499 1498 1498 1497 1497 1498 1498 1497 1498 1497 1497 1498 1498 1498 1498
1511 1510 1510 1509 1509 1508 1508 1507 1506 1505 1504 1503 1502 1502 1501 1500 1500 1499 1499 1498 1498 1497 1497 1496 1495 1494 1494 1494 1494 1494 1494 1493 1493 1494 1494 1492 1493 1493 1493 1493 1494 1494 1494
1508 1507 1507 1506 1505 1505 1504 1504 1503 1502 1501 1500 1499 1498 1497 1496 1496 1495 1494 1493 1493 1492 1492 1491 1490 1490 1490 1490 1490 1490 1489 1489 1489 1490 1490 1489 1488 1488 1489 1489 1490 1490 1490
1504 1503 1503 1502 1502 1501 1501 1500 1499 1498 1497 1496 1495 1494 1494 1493 1492 1491 1490 1489 1488 1488 1488 1487 1486 1486 1486 1485 1485 1485 1484 1484 1483 1484 1485 1484 1484 1484 1484 1484 1485 1485 1485
1500 1499 1499 1498 1498 1497 1497 1496 1495 1494 1492 1491 1491 1490 1489 1489 1488 1487 1486 1484 1483 1483 1483 1482 1482 1481 1481 1480 1480 1480 1479 1479 1478 1478 1479 1479 1479 1479 1479 1479 1480 1480 1480